Location: Unspecified
(0.0000°N, 0.0000°E)
Time: 10:47:41
(UTC+02:00)

H-2A R/B - Visible Passes

Search period start: 23 May 2015 00:00
Search period end: 02 June 2015 00:00
Orbit: 256 x 33421 km, 28.4° (Epoch: 22 May)

Date Brightness Start Highest point End Pass type
(mag) Time Alt. Az. Time Alt. Az. Time Alt. Az.
24 May 3.6 02:46:39 10° W 11:17:15 58° NW 11:20:43 10° NE visible
24 May 7.3 21:31:48 10° NW 22:12:07 86° NE 06:41:04 10° ESE visible
25 May 5.9 16:58:09 10° NNE 17:01:32 12° NE 01:24:56 10° ESE visible
26 May 4.0 12:06:59 10° W 12:12:25 18° NW 12:14:43 10° N visible
26 May 6.8 22:28:54 10° WNW 07:21:11 51° S 07:38:12 10° E visible
27 May 6.1 17:50:09 10° N 17:59:25 27° NE 02:38:06 10° ESE visible
28 May 5.8 23:27:05 10° WNW 08:24:09 58° SSE 08:33:53 10° E visible
29 May 6.6 18:43:47 10° NNW 18:57:09 45° NE 03:42:35 10° ESE visible
31 May 4.7 00:27:48 10° W 09:22:12 73° SSE 09:28:20 10° ENE visible
31 May 6.9 19:37:30 10° NW 19:56:09 63° NE 04:42:36 10° ESE visible
